Time,TemperatureF,DewpointF,PressureIn,WindDirection,WindDirectionDegrees,WindSpeedMPH,WindSpeedGustMPH,Humidity,HourlyPrecipIn,Conditions,Clouds,dailyrainin,SoftwareType,DateUTC
2013-04-06 00:03:00,55.0,19.0,-100.00,WNW,284,3.0,11.0,24,0.00,,,0.00,,2013-04-06 06:03:00,
2013-04-06 00:12:00,55.0,19.0,-100.00,WNW,284,3.0,11.0,24,0.00,,,0.00,,2013-04-06 06:12:00,
2013-04-06 00:22:00,55.0,19.0,-100.00,WNW,284,3.0,11.0,24,0.00,,,0.00,,2013-04-06 06:22:00,
2013-04-06 00:32:00,55.0,19.0,-100.00,WNW,284,3.0,11.0,24,0.00,,,0.00,,2013-04-06 06:32:00,
2013-04-06 00:40:00,56.0,20.0,-100.00,South,183,5.0,14.0,24,0.00,,,0.00,,2013-04-06 06:40:00,
2013-04-06 01:03:00,56.0,20.0,-100.00,South,183,5.0,14.0,24,0.00,,,0.00,,2013-04-06 07:03:00,
2013-04-06 01:12:00,56.0,20.0,-100.00,South,183,5.0,14.0,24,0.00,,,0.00,,2013-04-06 07:12:00,
2013-04-06 01:22:00,56.0,20.0,-100.00,South,183,5.0,14.0,24,0.00,,,0.00,,2013-04-06 07:22:00,
2013-04-06 01:33:00,56.0,20.0,-100.00,South,183,5.0,14.0,24,0.00,,,0.00,,2013-04-06 07:33:00,
2013-04-06 01:40:00,51.0,18.0,-100.00,WNW,299,2.0,10.0,27,0.00,,,0.00,,2013-04-06 07:40:00,
2013-04-06 02:02:00,51.0,18.0,-100.00,WNW,299,2.0,10.0,27,0.00,,,0.00,,2013-04-06 08:02:00,
2013-04-06 02:13:00,51.0,18.0,-100.00,WNW,299,2.0,10.0,27,0.00,,,0.00,,2013-04-06 08:13:00,
2013-04-06 02:22:00,51.0,18.0,-100.00,WNW,299,2.0,10.0,27,0.00,,,0.00,,2013-04-06 08:22:00,
2013-04-06 02:32:00,51.0,18.0,-100.00,WNW,299,2.0,10.0,27,0.00,,,0.00,,2013-04-06 08:32:00,
2013-04-06 02:40:00,50.0,19.0,-100.00,West,273,3.0,8.0,29,0.00,,,0.00,,2013-04-06 08:40:00,
2013-04-06 03:12:00,50.0,19.0,-100.00,West,273,3.0,8.0,29,0.00,,,0.00,,2013-04-06 09:12:00,
2013-04-06 03:22:00,50.0,19.0,-100.00,West,273,3.0,8.0,29,0.00,,,0.00,,2013-04-06 09:22:00,
2013-04-06 03:33:00,50.0,19.0,-100.00,West,273,3.0,8.0,29,0.00,,,0.00,,2013-04-06 09:33:00,
2013-04-06 03:40:00,44.0,18.0,-100.00,West,279,3.0,6.0,35,0.00,,,0.00,,2013-04-06 09:40:00,
2013-04-06 04:03:00,44.0,18.0,-100.00,West,279,3.0,6.0,35,0.00,,,0.00,,2013-04-06 10:03:00,
2013-04-06 04:13:00,44.0,18.0,-100.00,West,279,3.0,6.0,35,0.00,,,0.00,,2013-04-06 10:13:00,
2013-04-06 04:23:00,44.0,18.0,-100.00,West,279,3.0,6.0,35,0.00,,,0.00,,2013-04-06 10:23:00,
2013-04-06 04:33:00,44.0,18.0,-100.00,West,279,3.0,6.0,35,0.00,,,0.00,,2013-04-06 10:33:00,
2013-04-06 04:40:00,43.0,18.0,-100.00,WNW,298,2.0,5.0,36,0.00,,,0.00,,2013-04-06 10:40:00,
2013-04-06 05:02:00,43.0,18.0,-100.00,WNW,298,2.0,5.0,36,0.00,,,0.00,,2013-04-06 11:02:00,
2013-04-06 05:12:00,43.0,18.0,-100.00,WNW,298,2.0,5.0,36,0.00,,,0.00,,2013-04-06 11:12:00,
2013-04-06 05:23:00,43.0,18.0,-100.00,WNW,298,2.0,5.0,36,0.00,,,0.00,,2013-04-06 11:23:00,
2013-04-06 05:33:00,43.0,18.0,-100.00,WNW,298,2.0,5.0,36,0.00,,,0.00,,2013-04-06 11:33:00,
2013-04-06 05:40:00,40.0,18.0,-100.00,WNW,284,2.0,4.0,41,0.00,,,0.00,,2013-04-06 11:40:00,
2013-04-06 06:02:00,40.0,18.0,-100.00,WNW,284,2.0,4.0,41,0.00,,,0.00,,2013-04-06 12:02:00,
2013-04-06 06:12:00,40.0,18.0,-100.00,WNW,284,2.0,4.0,41,0.00,,,0.00,,2013-04-06 12:12:00,
2013-04-06 06:22:00,40.0,18.0,-100.00,WNW,284,2.0,4.0,41,0.00,,,0.00,,2013-04-06 12:22:00,
2013-04-06 06:32:00,40.0,18.0,-100.00,WNW,284,2.0,4.0,41,0.00,,,0.00,,2013-04-06 12:32:00,
2013-04-06 06:40:00,41.0,20.0,-100.00,West,281,2.0,5.0,42,0.00,,,0.00,,2013-04-06 12:40:00,
2013-04-06 07:03:00,41.0,20.0,-100.00,West,281,2.0,5.0,42,0.00,,,0.00,,2013-04-06 13:03:00,
2013-04-06 07:13:00,41.0,20.0,-100.00,West,281,2.0,5.0,42,0.00,,,0.00,,2013-04-06 13:13:00,
2013-04-06 07:24:00,41.0,20.0,-100.00,West,281,2.0,5.0,42,0.00,,,0.00,,2013-04-06 13:24:00,
2013-04-06 07:32:00,41.0,20.0,-100.00,West,281,2.0,5.0,42,0.00,,,0.00,,2013-04-06 13:32:00,
2013-04-06 07:40:00,44.0,20.0,-100.00,SE,138,3.0,8.0,38,0.00,,,0.00,,2013-04-06 13:40:00,
2013-04-06 08:04:00,44.0,20.0,-100.00,SE,138,3.0,8.0,38,0.00,,,0.00,,2013-04-06 14:04:00,
2013-04-06 08:12:00,44.0,20.0,-100.00,SE,138,3.0,8.0,38,0.00,,,0.00,,2013-04-06 14:12:00,
2013-04-06 08:22:00,44.0,20.0,-100.00,SE,138,3.0,8.0,38,0.00,,,0.00,,2013-04-06 14:22:00,
2013-04-06 08:33:00,44.0,20.0,-100.00,SE,138,3.0,8.0,38,0.00,,,0.00,,2013-04-06 14:33:00,
2013-04-06 08:40:00,49.0,23.0,-100.00,West,260,2.0,4.0,35,0.00,,,0.00,,2013-04-06 14:40:00,
2013-04-06 09:02:00,49.0,23.0,-100.00,West,260,2.0,4.0,35,0.00,,,0.00,,2013-04-06 15:02:00,
2013-04-06 09:12:00,49.0,23.0,-100.00,West,260,2.0,4.0,35,0.00,,,0.00,,2013-04-06 15:12:00,
2013-04-06 09:23:00,49.0,23.0,-100.00,West,260,2.0,4.0,35,0.00,,,0.00,,2013-04-06 15:23:00,
2013-04-06 09:33:00,49.0,23.0,-100.00,West,260,2.0,4.0,35,0.00,,,0.00,,2013-04-06 15:33:00,
2013-04-06 09:40:00,54.0,22.0,-100.00,SSE,152,3.0,5.0,29,0.00,,,0.00,,2013-04-06 15:40:00,
2013-04-06 10:05:00,54.0,22.0,-100.00,SSE,152,3.0,5.0,29,0.00,,,0.00,,2013-04-06 16:05:00,
2013-04-06 10:17:00,54.0,22.0,-100.00,SSE,152,3.0,5.0,29,0.00,,,0.00,,2013-04-06 16:17:00,
2013-04-06 10:23:00,54.0,22.0,-100.00,SSE,152,3.0,5.0,29,0.00,,,0.00,,2013-04-06 16:23:00,
2013-04-06 10:33:00,54.0,22.0,-100.00,SSE,152,3.0,5.0,29,0.00,,,0.00,,2013-04-06 16:33:00,
2013-04-06 10:40:00,58.0,23.0,-100.00,SE,146,4.0,8.0,26,0.00,,,0.00,,2013-04-06 16:40:00,
2013-04-06 11:03:00,58.0,23.0,-100.00,SE,146,4.0,8.0,26,0.00,,,0.00,,2013-04-06 17:03:00,
2013-04-06 11:12:00,58.0,23.0,-100.00,SE,146,4.0,8.0,26,0.00,,,0.00,,2013-04-06 17:12:00,
2013-04-06 11:22:00,58.0,23.0,-100.00,SE,146,4.0,8.0,26,0.00,,,0.00,,2013-04-06 17:22:00,
2013-04-06 11:32:00,58.0,23.0,-100.00,SE,146,4.0,8.0,26,0.00,,,0.00,,2013-04-06 17:32:00,
2013-04-06 11:40:00,62.0,24.0,-100.00,ESE,117,4.0,9.0,23,0.00,,,0.00,,2013-04-06 17:40:00,
2013-04-06 12:03:00,62.0,24.0,-100.00,ESE,117,4.0,9.0,23,0.00,,,0.00,,2013-04-06 18:03:00,
2013-04-06 12:12:00,62.0,24.0,-100.00,ESE,117,4.0,9.0,23,0.00,,,0.00,,2013-04-06 18:12:00,
2013-04-06 12:23:00,62.0,24.0,-100.00,ESE,117,4.0,9.0,23,0.00,,,0.00,,2013-04-06 18:23:00,
2013-04-06 12:32:00,62.0,24.0,-100.00,ESE,117,4.0,9.0,23,0.00,,,0.00,,2013-04-06 18:32:00,
2013-04-06 12:40:00,66.0,24.0,-100.00,SE,127,5.0,13.0,20,0.00,,,0.00,,2013-04-06 18:40:00,
2013-04-06 13:03:00,66.0,24.0,-100.00,SE,127,5.0,13.0,20,0.00,,,0.00,,2013-04-06 19:03:00,
2013-04-06 13:12:00,66.0,24.0,-100.00,SE,127,5.0,13.0,20,0.00,,,0.00,,2013-04-06 19:12:00,
2013-04-06 13:23:00,66.0,24.0,-100.00,SE,127,5.0,13.0,20,0.00,,,0.00,,2013-04-06 19:23:00,
2013-04-06 13:32:00,66.0,24.0,-100.00,SE,127,5.0,13.0,20,0.00,,,0.00,,2013-04-06 19:32:00,
2013-04-06 13:40:00,66.0,23.0,-100.00,East,83,5.0,15.0,19,0.00,,,0.00,,2013-04-06 19:40:00,
2013-04-06 14:03:00,66.0,23.0,-100.00,East,83,5.0,15.0,19,0.00,,,0.00,,2013-04-06 20:03:00,
2013-04-06 14:12:00,66.0,23.0,-100.00,East,83,5.0,15.0,19,0.00,,,0.00,,2013-04-06 20:12:00,
2013-04-06 14:22:00,66.0,23.0,-100.00,East,83,5.0,15.0,19,0.00,,,0.00,,2013-04-06 20:22:00,
2013-04-06 14:32:00,66.0,23.0,-100.00,East,83,5.0,15.0,19,0.00,,,0.00,,2013-04-06 20:32:00,
2013-04-06 14:40:00,67.0,23.0,-100.00,ESE,102,6.0,13.0,19,0.00,,,0.00,,2013-04-06 20:40:00,
2013-04-06 15:02:00,67.0,23.0,-100.00,ESE,102,6.0,13.0,19,0.00,,,0.00,,2013-04-06 21:02:00,
2013-04-06 15:13:00,67.0,23.0,-100.00,ESE,102,6.0,13.0,19,0.00,,,0.00,,2013-04-06 21:13:00,
2013-04-06 15:22:00,67.0,23.0,-100.00,ESE,102,6.0,13.0,19,0.00,,,0.00,,2013-04-06 21:22:00,
2013-04-06 15:33:00,67.0,23.0,-100.00,ESE,102,6.0,13.0,19,0.00,,,0.00,,2013-04-06 21:33:00,
2013-04-06 15:40:00,69.0,21.0,-100.00,WNW,297,5.0,12.0,16,0.00,,,0.00,,2013-04-06 21:40:00,
2013-04-06 16:03:00,69.0,21.0,-100.00,WNW,297,5.0,12.0,16,0.00,,,0.00,,2013-04-06 22:03:00,
2013-04-06 16:13:00,69.0,21.0,-100.00,WNW,297,5.0,12.0,16,0.00,,,0.00,,2013-04-06 22:13:00,
2013-04-06 16:23:00,69.0,21.0,-100.00,WNW,297,5.0,12.0,16,0.00,,,0.00,,2013-04-06 22:23:00,
2013-04-06 16:34:00,69.0,21.0,-100.00,WNW,297,5.0,12.0,16,0.00,,,0.00,,2013-04-06 22:34:00,
2013-04-06 16:40:00,69.0,16.0,-100.00,SW,229,7.0,13.0,13,0.00,,,0.00,,2013-04-06 22:40:00,
2013-04-06 17:03:00,69.0,16.0,-100.00,SW,229,7.0,13.0,13,0.00,,,0.00,,2013-04-06 23:03:00,
2013-04-06 17:13:00,69.0,16.0,-100.00,SW,229,7.0,13.0,13,0.00,,,0.00,,2013-04-06 23:13:00,
2013-04-06 17:23:00,69.0,16.0,-100.00,SW,229,7.0,13.0,13,0.00,,,0.00,,2013-04-06 23:23:00,
2013-04-06 17:34:00,69.0,16.0,-100.00,SW,229,7.0,13.0,13,0.00,,,0.00,,2013-04-06 23:34:00,
2013-04-06 17:40:00,67.0,16.0,-100.00,SW,232,8.0,23.0,14,0.00,,,0.00,,2013-04-06 23:40:00,
2013-04-06 18:02:00,67.0,16.0,-100.00,SW,232,8.0,23.0,14,0.00,,,0.00,,2013-04-07 00:02:00,
2013-04-06 18:13:00,67.0,16.0,-100.00,SW,232,8.0,23.0,14,0.00,,,0.00,,2013-04-07 00:13:00,
2013-04-06 18:22:00,67.0,16.0,-100.00,SW,232,8.0,23.0,14,0.00,,,0.00,,2013-04-07 00:22:00,
2013-04-06 18:33:00,67.0,16.0,-100.00,SW,232,8.0,23.0,14,0.00,,,0.00,,2013-04-07 00:33:00,
2013-04-06 18:40:00,65.0,16.0,-100.00,West,278,3.0,15.0,15,0.00,,,0.00,,2013-04-07 00:40:00,
2013-04-06 19:02:00,65.0,16.0,-100.00,West,278,3.0,15.0,15,0.00,,,0.00,,2013-04-07 01:02:00,
2013-04-06 19:12:00,65.0,16.0,-100.00,West,278,3.0,15.0,15,0.00,,,0.00,,2013-04-07 01:12:00,
2013-04-06 19:23:00,65.0,16.0,-100.00,West,278,3.0,15.0,15,0.00,,,0.00,,2013-04-07 01:23:00,
2013-04-06 19:32:00,65.0,16.0,-100.00,West,278,3.0,15.0,15,0.00,,,0.00,,2013-04-07 01:32:00,
2013-04-06 19:40:00,58.0,16.0,-100.00,WNW,286,3.0,8.0,19,0.00,,,0.00,,2013-04-07 01:40:00,
2013-04-06 20:03:00,58.0,16.0,-100.00,WNW,286,3.0,8.0,19,0.00,,,0.00,,2013-04-07 02:03:00,
2013-04-06 20:12:00,58.0,16.0,-100.00,WNW,286,3.0,8.0,19,0.00,,,0.00,,2013-04-07 02:12:00,
2013-04-06 20:23:00,58.0,16.0,-100.00,WNW,286,3.0,8.0,19,0.00,,,0.00,,2013-04-07 02:23:00,
2013-04-06 20:32:00,58.0,16.0,-100.00,WNW,286,3.0,8.0,19,0.00,,,0.00,,2013-04-07 02:32:00,
2013-04-06 20:40:00,54.0,18.0,-100.00,NW,311,4.0,6.0,24,0.00,,,0.00,,2013-04-07 02:40:00,
2013-04-06 21:02:00,54.0,18.0,-100.00,NW,311,4.0,6.0,24,0.00,,,0.00,,2013-04-07 03:02:00,
2013-04-06 21:12:00,54.0,18.0,-100.00,NW,311,4.0,6.0,24,0.00,,,0.00,,2013-04-07 03:12:00,
2013-04-06 21:22:00,54.0,18.0,-100.00,NW,311,4.0,6.0,24,0.00,,,0.00,,2013-04-07 03:22:00,
2013-04-06 21:35:00,54.0,18.0,-100.00,NW,311,4.0,6.0,24,0.00,,,0.00,,2013-04-07 03:35:00,
2013-04-06 21:40:00,57.0,21.0,-100.00,WNW,303,4.0,10.0,24,0.00,,,0.00,,2013-04-07 03:40:00,
2013-04-06 22:03:00,57.0,21.0,-100.00,WNW,303,4.0,10.0,24,0.00,,,0.00,,2013-04-07 04:03:00,
2013-04-06 22:14:00,57.0,21.0,-100.00,WNW,303,4.0,10.0,24,0.00,,,0.00,,2013-04-07 04:14:00,
2013-04-06 22:23:00,57.0,21.0,-100.00,WNW,303,4.0,10.0,24,0.00,,,0.00,,2013-04-07 04:23:00,
2013-04-06 22:32:00,57.0,21.0,-100.00,WNW,303,4.0,10.0,24,0.00,,,0.00,,2013-04-07 04:32:00,
2013-04-06 22:40:00,57.0,21.0,-100.00,NW,305,8.0,14.0,24,0.00,,,0.00,,2013-04-07 04:40:00,
2013-04-06 23:02:00,57.0,21.0,-100.00,NW,305,8.0,14.0,24,0.00,,,0.00,,2013-04-07 05:02:00,
2013-04-06 23:12:00,57.0,21.0,-100.00,NW,305,8.0,14.0,24,0.00,,,0.00,,2013-04-07 05:12:00,
2013-04-06 23:23:00,57.0,21.0,-100.00,NW,305,8.0,14.0,24,0.00,,,0.00,,2013-04-07 05:23:00,
2013-04-06 23:33:00,57.0,21.0,-100.00,NW,305,8.0,14.0,24,0.00,,,0.00,,2013-04-07 05:33:00,
2013-04-06 23:40:00,57.0,21.0,-100.00,NW,313,9.0,18.0,24,0.00,,,0.00,,2013-04-07 05:40:00,